Simultaneous Nadir Overpasses (SNOs) Predictions

Prediction of SNOs between NOAA-21 and LANDSAT-8 Satellite Orbit:

Table of predicted SNOs for the next 14.0 days since TLE Epoch: 6/22/2024
Index Date (NOAA-21) Time (NOAA-21) Lat,Lon (NOAA-21) SZA (NOAA-21 ) Date (LANDSAT-8) Time (LANDSAT-8) Lat,Lon (LANDSAT-8) SZA (LANDSAT-8 ) Distance(km) Time Diff (sec)
1 06/24/2024 06:19:31 -70.12, -98.77 133.31 06/24/2024 06:20:34 -70.14, -98.79 133.30 2.64 63
2 06/24/2024 07:10:16 70.04, 68.66 46.61 06/24/2024 07:10:01 70.04, 68.71 46.61 1.89 15
3 06/24/2024 08:00:49 -69.49,-123.20 133.97 06/24/2024 07:59:38 -69.55,-124.34 133.87 44.94 71
4 06/26/2024 22:36:29 -70.10, 17.03 133.24 06/26/2024 22:37:05 -70.11, 17.05 133.24 1.45 36
5 06/26/2024 23:27:13 69.97,-175.47 46.63 06/26/2024 23:26:33 69.95,-175.53 46.62 3.34 40
6 06/29/2024 14:02:51 70.49, -35.14 47.31 06/29/2024 14:04:02 70.38, -34.32 47.16 33.09 71
7 06/29/2024 14:53:26 -70.04, 132.89 133.17 06/29/2024 14:53:36 -70.05, 132.85 133.15 2.57 10
8 06/29/2024 15:44:11 69.97, -59.69 46.76 06/29/2024 15:43:03 69.95, -59.66 46.75 2.54 68
9 07/02/2024 06:19:42 70.12, 81.21 47.11 07/02/2024 06:20:36 70.13, 81.20 47.11 0.59 54
10 07/02/2024 07:10:24 -70.03,-111.34 132.98 07/02/2024 07:10:06 -70.02,-111.31 132.99 1.24 18
11 07/02/2024 08:00:53 69.12, 57.31 46.07 07/02/2024 07:59:46 69.19, 55.20 46.23 83.79 67
12 07/04/2024 22:36:38 70.08,-162.95 47.30 07/04/2024 22:37:05 70.07,-163.00 47.29 1.95 27
13 07/04/2024 23:27:20 -69.98, 4.51 132.80 07/04/2024 23:26:35 -69.96, 4.49 132.81 1.99 45



Historial Predications of SNOs between NOAA-21 and LANDSAT-8
